When you browse on this site, cookies collect data to enhance your experience and personalize the content and advertising you see.
Visit our Privacy Policy to learn more. By continuing to use the site, you agree to this use of cookies and data.
  • In Czech Republic
  • List of Countries
  • For 7 days
  • Water Temperature
  • Weather Map
  • Weather Widgets
  • user-avatar
    Login

    Hourly Weather Tema

    Today, 19 October, Saturday

    Time Temperature Precipitation Wind Pressure Humidity
    00:00 +27°C° 0 mm 4 mps 756 mmHg 82%
    01:00 +27°C° 0 mm 4 mps 756 mmHg 82%
    02:00 +27°C° 0 mm 5 mps 755 mmHg 81%
    03:00 +27°C° 0 mm 5 mps 755 mmHg 80%
    04:00 +27°C° 0.2 mm 5 mps 755 mmHg 81%
    05:00 +27°C° 0.2 mm 5 mps 756 mmHg 82%
    06:00 +27°C° 0.2 mm 4 mps 756 mmHg 83%
    07:00 +28°C° 0.4 mm 4 mps 757 mmHg 77%
    08:00 +30°C° 0.4 mm 4 mps 757 mmHg 71%
    09:00 +32°C° 0.4 mm 4 mps 757 mmHg 64%
    10:00 +33°C° 0.3 mm 5 mps 757 mmHg 64%
    11:00 +33°C° 0.3 mm 5 mps 756 mmHg 64%
    12:00 +33°C° 0.3 mm 6 mps 756 mmHg 63%
    13:00 +33°C° 0 mm 6 mps 755 mmHg 64%
    14:00 +33°C° 0 mm 7 mps 755 mmHg 64%
    15:00 +33°C° 0 mm 7 mps 754 mmHg 65%
    16:00 +32°C° 0 mm 7 mps 755 mmHg 68%
    17:00 +30°C° 0 mm 7 mps 755 mmHg 70%
    18:00 +29°C° 0 mm 7 mps 755 mmHg 73%
    19:00 +29°C° 0 mm 7 mps 756 mmHg 75%
    20:00 +28°C° 0 mm 6 mps 757 mmHg 77%
    21:00 +28°C° 0 mm 6 mps 757 mmHg 78%
    22:00 +28°C° 0.2 mm 6 mps 757 mmHg 79%
    23:00 +28°C° 0.2 mm 6 mps 757 mmHg 80%

    Tomorrow, 20 October, Sunday

    Time Temperature Precipitation Wind Pressure Humidity
    00:00 +27°C° 0.2 mm 6 mps 757 mmHg 82%
    01:00 +27°C° 0.8 mm 6 mps 756 mmHg 82%
    02:00 +27°C° 0.8 mm 6 mps 756 mmHg 82%
    03:00 +27°C° 0.8 mm 5 mps 756 mmHg 83%
    04:00 +27°C° 2.8 mm 6 mps 756 mmHg 83%
    05:00 +27°C° 2.8 mm 6 mps 756 mmHg 83%
    06:00 +27°C° 2.8 mm 6 mps 757 mmHg 82%
    07:00 +27°C° 2 mm 5 mps 757 mmHg 82%
    08:00 +28°C° 2 mm 5 mps 758 mmHg 81%
    09:00 +28°C° 2 mm 4 mps 758 mmHg 80%
    10:00 +29°C° 0.6 mm 5 mps 757 mmHg 74%
    11:00 +32°C° 0.6 mm 6 mps 757 mmHg 68%
    12:00 +33°C° 0.6 mm 6 mps 756 mmHg 61%
    13:00 +33°C° 0.1 mm 6 mps 756 mmHg 63%
    14:00 +33°C° 0.1 mm 6 mps 756 mmHg 64%
    15:00 +32°C° 0.1 mm 6 mps 755 mmHg 65%
    16:00 +30°C° 0 mm 6 mps 756 mmHg 68%
    17:00 +30°C° 0 mm 6 mps 756 mmHg 72%
    18:00 +29°C° 0 mm 5 mps 756 mmHg 75%
    19:00 +28°C° 0.2 mm 5 mps 757 mmHg 76%
    20:00 +28°C° 0.2 mm 5 mps 757 mmHg 78%
    21:00 +28°C° 0.2 mm 5 mps 758 mmHg 79%
    22:00 +28°C° 0.5 mm 4 mps 758 mmHg 80%
    23:00 +28°C° 0.5 mm 4 mps 758 mmHg 81%

    Day after tomorrow, 21 October, Monday

    Time Temperature Precipitation Wind Pressure Humidity
    00:00 +27°C° 0.5 mm 4 mps 758 mmHg 82%
    01:00 +27°C° 0 mm 4 mps 757 mmHg 83%
    02:00 +27°C° 0 mm 4 mps 757 mmHg 83%
    03:00 +27°C° 0 mm 4 mps 756 mmHg 83%
    04:00 +27°C° 0 mm 4 mps 757 mmHg 85%
    05:00 +27°C° 0 mm 4 mps 757 mmHg 86%
    06:00 +27°C° 0 mm 4 mps 757 mmHg 87%
    07:00 +28°C° 0 mm 4 mps 758 mmHg 81%
    08:00 +29°C° 0 mm 4 mps 758 mmHg 75%
    09:00 +30°C° 0 mm 3 mps 758 mmHg 70%
    10:00 +31°C° 0 mm 3 mps 758 mmHg 67%
    11:00 +33°C° 0 mm 3 mps 757 mmHg 64%
    12:00 +33°C° 0 mm 3 mps 757 mmHg 61%
    13:00 +33°C° 0 mm 3 mps 756 mmHg 61%
    14:00 +33°C° 0 mm 4 mps 756 mmHg 61%
    15:00 +33°C° 0 mm 4 mps 755 mmHg 62%
    16:00 +32°C° 0 mm 4 mps 755 mmHg 65%
    17:00 +30°C° 0 mm 4 mps 755 mmHg 69%
    18:00 +29°C° 0 mm 4 mps 755 mmHg 72%
    19:00 +29°C° 0 mm 4 mps 756 mmHg 74%
    20:00 +29°C° 0 mm 4 mps 757 mmHg 76%
    21:00 +28°C° 0 mm 4 mps 757 mmHg 77%
    22:00 +28°C° 0 mm 5 mps 757 mmHg 79%
    23:00 +28°C° 0 mm 5 mps 757 mmHg 81%

    22 October, Tuesday

    Time Temperature Precipitation Wind Pressure Humidity
    00:00 +28°C° 0 mm 5 mps 756 mmHg 82%
    01:00 +27°C° 0 mm 5 mps 756 mmHg 83%
    02:00 +27°C° 0 mm 5 mps 756 mmHg 84%
    03:00 +27°C° 0 mm 5 mps 756 mmHg 85%
    04:00 +27°C° 0 mm 5 mps 756 mmHg 85%
    05:00 +27°C° 0 mm 5 mps 756 mmHg 85%
    06:00 +27°C° 0 mm 5 mps 757 mmHg 85%
    07:00 +28°C° 0.1 mm 5 mps 757 mmHg 79%
    08:00 +29°C° 0.1 mm 5 mps 757 mmHg 73%
    09:00 +32°C° 0.1 mm 5 mps 757 mmHg 67%
    10:00 +30°C° 0.1 mm 4 mps 757 mmHg 69%
    11:00 +30°C° 0.1 mm 4 mps 756 mmHg 71%
    12:00 +30°C° 0.1 mm 3 mps 756 mmHg 73%
    13:00 +30°C° 0.1 mm 3 mps 755 mmHg 72%
    14:00 +30°C° 0.1 mm 3 mps 754 mmHg 71%
    15:00 +30°C° 0.1 mm 3 mps 754 mmHg 70%
    16:00 +30°C° 0 mm 3 mps 754 mmHg 72%
    17:00 +29°C° 0 mm 4 mps 754 mmHg 73%
    18:00 +29°C° 0 mm 4 mps 754 mmHg 74%
    19:00 +29°C° 0 mm 3 mps 755 mmHg 75%
    20:00 +28°C° 0 mm 3 mps 755 mmHg 77%
    21:00 +28°C° 0 mm 2 mps 756 mmHg 78%
    22:00 +28°C° 0.1 mm 3 mps 756 mmHg 80%
    23:00 +28°C° 0.1 mm 3 mps 756 mmHg 82%

    23 October, Wednesday

    Time Temperature Precipitation Wind Pressure Humidity
    00:00 +28°C° 0.1 mm 3 mps 755 mmHg 84%
    01:00 +27°C° 1.1 mm 3 mps 755 mmHg 84%
    02:00 +27°C° 1.1 mm 3 mps 755 mmHg 85%
    03:00 +27°C° 1.1 mm 3 mps 754 mmHg 86%
    04:00 +27°C° 0.8 mm 3 mps 755 mmHg 86%
    05:00 +27°C° 0.8 mm 3 mps 755 mmHg 86%
    06:00 +27°C° 0.8 mm 3 mps 755 mmHg 86%
    07:00 +28°C° 0 mm 3 mps 755 mmHg 80%
    08:00 +29°C° 0 mm 3 mps 756 mmHg 74%
    09:00 +31°C° 0 mm 3 mps 756 mmHg 68%
    10:00 +33°C° 0 mm 4 mps 756 mmHg 64%
    11:00 +33°C° 0 mm 4 mps 755 mmHg 61%
    12:00 +34°C° 0 mm 5 mps 755 mmHg 57%
    13:00 +34°C° 0 mm 5 mps 754 mmHg 58%
    14:00 +34°C° 0 mm 5 mps 754 mmHg 60%
    15:00 +33°C° 0 mm 6 mps 753 mmHg 61%
    16:00 +32°C° 0 mm 6 mps 754 mmHg 66%
    17:00 +30°C° 0 mm 6 mps 754 mmHg 70%
    18:00 +29°C° 0 mm 6 mps 754 mmHg 75%
    19:00 +29°C° 0 mm 6 mps 755 mmHg 76%
    20:00 +29°C° 0 mm 6 mps 755 mmHg 78%
    21:00 +28°C° 0 mm 6 mps 756 mmHg 80%
    22:00 +28°C° 0.1 mm 6 mps 756 mmHg 81%
    23:00 +28°C° 0.1 mm 5 mps 756 mmHg 82%

    24 October, Thursday

    Time Temperature Precipitation Wind Pressure Humidity
    00:00 +28°C° 0.1 mm 5 mps 756 mmHg 83%
    01:00 +27°C° 0.1 mm 5 mps 756 mmHg 84%
    02:00 +27°C° 0.1 mm 5 mps 755 mmHg 84%
    03:00 +27°C° 0.1 mm 6 mps 755 mmHg 85%
    04:00 +27°C° 0.1 mm 5 mps 755 mmHg 85%
    05:00 +27°C° 0.1 mm 5 mps 756 mmHg 85%
    06:00 +27°C° 0.1 mm 4 mps 756 mmHg 85%
    07:00 +28°C° 0 mm 4 mps 756 mmHg 81%
    08:00 +29°C° 0 mm 4 mps 757 mmHg 77%
    09:00 +29°C° 0 mm 4 mps 757 mmHg 73%
    10:00 +32°C° 0 mm 4 mps 757 mmHg 67%
    11:00 +33°C° 0 mm 4 mps 756 mmHg 61%
    12:00 +35°C° 0 mm 4 mps 756 mmHg 55%
    13:00 +33°C° 0 mm 4 mps 755 mmHg 62%
    14:00 +32°C° 0 mm 5 mps 755 mmHg 69%
    15:00 +29°C° 0 mm 5 mps 754 mmHg 77%
    16:00 +29°C° 0 mm 5 mps 754 mmHg 76%
    17:00 +29°C° 0 mm 5 mps 755 mmHg 76%
    18:00 +29°C° 0 mm 5 mps 755 mmHg 76%
    19:00 +29°C° 0 mm 5 mps 755 mmHg 77%
    20:00 +29°C° 0 mm 5 mps 756 mmHg 79%
    21:00 +29°C° 0 mm 5 mps 756 mmHg 80%
    22:00 +28°C° 0.9 mm 4 mps 756 mmHg 81%
    23:00 +28°C° 0.9 mm 4 mps 756 mmHg 83%
    Show more